Lexington Weather

Lexington, Massachusetts, USA

43°F
11/27/2020 4:07am 
  • Lexington Conditions: Mist, Overcast
  • Temperature: 43.2°F / 6.2°CWarmer 2.9°F than last hour.
  • Dew Point: 42.6°FIncreased 3.0°Fsince last hour.
  • Relative Humidity: 98%Increased 1.0% since last hour.
  • Wind: Calm, 10-min avg: Calm, gust: None
  • Barometer: 29.97 in Steady
  • Visibility: ¾ mile
  • Rain Today: 0.00 in
  •   
Southeast Middlesex County - Special Weather Statement
 - SEE ALL NEARBY ALERTS -

Regional Weather Roundup
for Boston / Norton, MA

        
000
ASUS41 KBOX 240704
RWRBOX

REGIONAL WEATHER ROUNDUP
NATIONAL WEATHER SERVICE BOSTON/NORTON MA
200 AM EST TUE NOV 24 2020

NOTE:  "FAIR" INDICATES FEW OR NO CLOUDS BELOW 12,000 FEET WITH NO 
SIGNIFICANT WEATHER AND/OR OBSTRUCTIONS TO VISIBILITY.

MAZALL-240800-
EASTERN MASSACHUSETTS
  
CITY           SKY/WX    TMP DP  RH WIND       PRES   REMARKS
BOSTON         PTCLDY    36  23  59 W17       30.03R WCI  26          
BEVERLY        CLEAR     36  24  62 W9        30.00R WCI  29          
LAWRENCE       CLEAR     35  24  64 W6        30.03R WCI  30          
BEDFORD        CLEAR     35  24  64 W7        30.03R WCI  29          
BLUE HILL        N/A     32  24  72 NW14G28   30.00R WCI  22          
NORWOOD        CLEAR     37  23  56 W9        30.04R WCI  30          
MARSHFIELD     CLEAR     37  25  60 NW8       30.03R WCI  31          
PLYMOUTH       CLEAR     34  24  67 W9        30.03R WCI  27          
TAUNTON        CLEAR     37  24  59 W7        30.04R WCI  32          
NEW BEDFORD    CLEAR     36  25  64 NW5       30.04R                  
$$

MAZALL-240800-
CAPE COD AND THE ISLANDS
  
CITY           SKY/WX    TMP DP  RH WIND       PRES   REMARKS
FALMOUTH       CLEAR     36  27  69 NW14      30.02R WCI  27          
HYANNIS        CLEAR     36  26  67 NW7       30.00R WCI  30          
CHATHAM        PTCLDY    39  27  62 NW9G21    30.01R                  
NANTUCKET      CLEAR     40  26  57 NW23G32   30.02R WCI  30          
MARTHAS VNYRD  CLEAR     38  25  59 NW16G26   30.04R WCI  29          
$$
 
MAZALL-240800-
CENTRAL AND WESTERN MASSACHUSETTS
  
CITY           SKY/WX    TMP DP  RH WIND       PRES   REMARKS
WORCESTER      CLEAR     32  22  66 W16       30.02R WCI  21          
FITCHBURG      CLEAR     32  24  72 NW8       30.04R WCI  25          
ORANGE         CLEAR     34  23  64 W6        30.06R WCI  29          
SPRINGFIELD    CLEAR     33  24  67 W10       30.07R WCI  25          
WESTFIELD      CLEAR     33  25  72 W6        30.10R WCI  28          
NORTH ADAMS    CLEAR     33  24  69 W7        30.09R WCI  27          
PITTSFIELD     CLEAR     30  25  81 W10       30.06R WCI  21          
$$
 
RIZALL-240800-
RHODE ISLAND
  
CITY           SKY/WX    TMP DP  RH WIND       PRES   REMARKS
PROVIDENCE     CLEAR     37  24  59 NW8       30.07R WCI  31          
NEWPORT        CLEAR     37  25  61 NW14G22   30.05R WCI  28          
BLOCK ISLAND   CLEAR     37  26  64 NW17G28   30.09R WCI  27          
SMITHFIELD     CLEAR     34  25  69 NW8       30.05R WCI  27          
WESTERLY       CLEAR     36  24  62 VRB5      30.09R                  
$$
 
CTZALL-240800-
CONNECTICUT
  
CITY           SKY/WX    TMP DP  RH WIND       PRES   REMARKS
BRADLEY INTL   CLEAR     34  25  69 W9        30.10R WCI  27          
HARTFORD       CLEAR     37  26  64 W8        30.12R WCI  31          
BRIDGEPORT     MOCLDY    36  29  75 NW3       30.14R                  
DANBURY        MOCLDY    30  28  92 CALM      30.13R                  
GROTON         CLEAR     36  26  67 NW9       30.10R WCI  29          
NEW HAVEN      CLEAR     40  30  67 NW6       30.13R                  
CHESTER        FAIR      36  25  64 NW8G18    30.10R WCI  29          
MERIDEN        CLEAR     36  25  64 NW5       30.13R                  
WILLIMANTIC    CLEAR     35  25  66 NW7       30.09R WCI  29          
OXFORD         MOCLDY    34  28  79 NW3       30.11R                  
$$

MEZ002-015-021-024-NHZ003-005-008-011-012-014-VTZ005-008-240800-
NORTHERN NEW ENGLAND
  
CITY           SKY/WX    TMP DP  RH WIND       PRES   REMARKS
PORTLAND ME    CLEAR     33  24  69 NW10      29.94R WCI  25          
BANGOR ME      MOCLDY    34  23  64 NW18G25   29.82R WCI  23          
CONCORD NH     CLOUDY    35  23  61 NW14G24   30.01R WCI  26          
MANCHESTER NH  PTCLDY    37  23  56 NW8       30.01R WCI  31          
NASHUA NH      CLEAR     35  25  66 W8        30.04R WCI  29          
PORTSMOUTH NH  CLEAR     35  23  60 NW16G23   29.97  WCI  25          
JAFFREY NH     PTCLDY    33  22  63 VRB3      30.01R                  
KEENE NH       CLEAR     25  22  88 CALM      30.05R                  
BURLINGTON VT  CLOUDY    36  26  67 NW12      30.10R WCI  28          
MT. WASHINGTON SNOWSHWR   9   9 100 NW64G75     N/A  VSB 1/16WCI -21  
$$

NYZ052-076-240800-
EASTERN NEW YORK
  
CITY           SKY/WX    TMP DP  RH WIND       PRES   REMARKS
ALBANY         PTCLDY    25  23  92 CALM      30.14R                  
NEW YORK CITY  PTCLDY    45  29  53 W12       30.17R                  
$$
 
ANZALL-240800-
MARINE OBSERVATIONS
  
STATION/POSITION TIME  TEMP    WIND        PRES    VSBY  WAVE
                       AIR SEA DIR/SP/G                  HT/PER
                 (UTC) (F)     (DEG/KT/KT) (MB)    (MI)  (FT/S)
BOSTON BUOY      0640   40 51  300/ 23/ 33 1016.6R
BUZZARDS BAY     0600          310/ 27/ 31 1017.5R
NANTUCKET SOUND  0640      51  310/ 17/ 23   N/A
MASS BAY-STELLWA NOT AVBL
ISLE OF SHOALS   NOT AVBL
S OF BLOCK IS    0626      57                N/A           8/ 7
$$

......................KEY.........................
  SKY/WX - SKY CONDITION/PRESENT WEATHER
  TMP    - TEMPERATURE IN FAHRENHEIT
  DWPT   - DEWPOINT IN FAHRENHEIT
  RH     - RELATIVE HUMIDITY IN PERCENT
  WIND   - DIRECTION AND SPEED IN MPH
  PRES   - MEAN SEA LEVEL PRESSURE IN INCHES OF HG
  WCI    - WIND CHILL INDEX
  VSB    - VISIBILITY IN MILES
  HX     - HEAT INDEX
  TC     - TEMPERATURE IN CELSIUS
  VRB    - VARIABLE WIND DIRECTION
  N/A    - NOT AVAILABLE
  
      

Other recent Regional Weather Roundups

Fri Nov 27, 1:04am

Fri Nov 27, 12:04am

Thu Nov 26, 11:04pm

Thu Nov 26, 10:04pm

Thu Nov 26, 9:04pm

Thu Nov 26, 8:04pm

Thu Nov 26, 7:04pm

Thu Nov 26, 6:04pm

Thu Nov 26, 5:04pm

Thu Nov 26, 4:04pm

Thu Nov 26, 2:04pm

Thu Nov 26, 1:04pm

Thu Nov 26, 12:04pm

Thu Nov 26, 11:04am

Thu Nov 26, 10:04am

Thu Nov 26, 9:04am

Thu Nov 26, 8:04am

Thu Nov 26, 7:04am

Thu Nov 26, 6:04am

Thu Nov 26, 5:04am

Thu Nov 26, 4:04am

Thu Nov 26, 3:04am

Thu Nov 26, 2:04am

Thu Nov 26, 1:04am

Thu Nov 26, 12:04am

Wed Nov 25, 11:04pm

Wed Nov 25, 10:04pm

Wed Nov 25, 9:04pm

Wed Nov 25, 8:04pm

Wed Nov 25, 7:04pm

Wed Nov 25, 6:04pm

Wed Nov 25, 5:04pm

Wed Nov 25, 4:04pm

Wed Nov 25, 3:05pm

Wed Nov 25, 2:04pm

Wed Nov 25, 1:04pm

Wed Nov 25, 12:05pm

Wed Nov 25, 11:04am

Wed Nov 25, 10:04am

Wed Nov 25, 9:04am

Wed Nov 25, 8:04am

Wed Nov 25, 7:04am

Wed Nov 25, 6:04am

Wed Nov 25, 5:04am

Wed Nov 25, 4:04am

Wed Nov 25, 3:04am

Wed Nov 25, 2:04am

Wed Nov 25, 1:04am

Wed Nov 25, 12:04am

Tue Nov 24, 11:04pm

Tue Nov 24, 10:04pm

Tue Nov 24, 9:04pm

Tue Nov 24, 8:04pm

Tue Nov 24, 7:04pm

Tue Nov 24, 6:04pm

Tue Nov 24, 5:04pm

Tue Nov 24, 4:05pm

Tue Nov 24, 3:05pm

Tue Nov 24, 2:05pm

Tue Nov 24, 1:05pm

Tue Nov 24, 12:04pm

Tue Nov 24, 11:04am

Tue Nov 24, 10:04am

Tue Nov 24, 9:04am

Tue Nov 24, 8:04am

Tue Nov 24, 7:04am

Tue Nov 24, 6:04am

Tue Nov 24, 5:04am

Tue Nov 24, 4:05am

Tue Nov 24, 3:04am

Tue Nov 24, 1:04am

Tue Nov 24, 12:05am

Mon Nov 23, 11:04pm

Mon Nov 23, 10:04pm

Mon Nov 23, 9:04pm

Mon Nov 23, 8:04pm

Mon Nov 23, 7:04pm

Mon Nov 23, 6:04pm

Mon Nov 23, 5:04pm

Mon Nov 23, 4:04pm

Mon Nov 23, 3:04pm

Mon Nov 23, 2:04pm

Mon Nov 23, 1:04pm

Mon Nov 23, 12:04pm

Mon Nov 23, 11:04am

Mon Nov 23, 10:04am

Mon Nov 23, 9:04am

Mon Nov 23, 8:05am

Mon Nov 23, 7:04am

Mon Nov 23, 6:04am

Mon Nov 23, 5:04am

Mon Nov 23, 4:04am

Mon Nov 23, 3:04am

Mon Nov 23, 2:04am

Mon Nov 23, 1:04am

Mon Nov 23, 12:05am

Sun Nov 22, 11:04pm

Sun Nov 22, 10:04pm

Sun Nov 22, 9:04pm

Sun Nov 22, 8:05pm

Sun Nov 22, 7:04pm

Sun Nov 22, 6:04pm

Sun Nov 22, 5:04pm

Sun Nov 22, 4:04pm

Sun Nov 22, 3:04pm

Sun Nov 22, 2:04pm

Sun Nov 22, 1:05pm

Sun Nov 22, 12:04pm

Sun Nov 22, 11:04am

Sun Nov 22, 10:05am

Sun Nov 22, 9:04am

Sun Nov 22, 8:04am

Sun Nov 22, 7:04am

Sun Nov 22, 6:04am

Sun Nov 22, 5:04am

Sun Nov 22, 4:04am

Sun Nov 22, 3:04am

Sun Nov 22, 2:04am

Sun Nov 22, 1:04am

Sun Nov 22, 12:04am

Sat Nov 21, 11:04pm

Sat Nov 21, 10:04pm

Sat Nov 21, 9:04pm

Sat Nov 21, 8:05pm

Sat Nov 21, 7:04pm

Sat Nov 21, 6:04pm

Sat Nov 21, 5:04pm

Sat Nov 21, 4:05pm

Sat Nov 21, 3:04pm

Sat Nov 21, 2:04pm

Sat Nov 21, 1:05pm

Sat Nov 21, 12:04pm

Sat Nov 21, 11:04am

Sat Nov 21, 10:04am

Sat Nov 21, 9:04am

Sat Nov 21, 8:04am

Sat Nov 21, 7:04am

Sat Nov 21, 6:04am

Sat Nov 21, 5:04am

Sat Nov 21, 4:04am

Sat Nov 21, 3:04am

Sat Nov 21, 2:04am

Sat Nov 21, 1:04am

Sat Nov 21, 12:04am

Fri Nov 20, 11:04pm

Fri Nov 20, 10:04pm

Fri Nov 20, 9:04pm

Fri Nov 20, 8:04pm

Fri Nov 20, 7:04pm

Fri Nov 20, 6:04pm

Fri Nov 20, 5:04pm

Fri Nov 20, 4:05pm

Fri Nov 20, 3:05pm

Fri Nov 20, 2:04pm

Fri Nov 20, 1:04pm

Fri Nov 20, 12:04pm

Fri Nov 20, 11:04am

Fri Nov 20, 10:04am

Fri Nov 20, 9:04am

Fri Nov 20, 8:04am

Fri Nov 20, 7:04am

Fri Nov 20, 6:04am

Fri Nov 20, 5:04am

Fri Nov 20, 4:04am

Meta data:

ID: 927f136e-1b53-4657-8570-860a61932d25
Link: https://api.weather.gov/products/927f136e-1b53-4657-8570-860a61932d25